Погода в Джераше

Иордания     32°16′30″N   35°53′54″E
темп.,
°C
ветер,
м/с
пор.,
м/с
влажн.,
%
обл.,
%
осадки,
мм/ч
давл.,
гПа
погр.,
м
2 марта, вт
вт223:00+8зсз11920 0.0 102022
02:00+7юз11940 0.0 102022
05:00+6ююз11973 0.0 102022
08:00+9юз11867 0.0 1021255
11:00+13зюз34608 0.0 10201022
14:00+14зюз55524 0.0 10181282
17:00+12з45631 0.0 1018994
20:00+9зсз12841 0.0 101928
3 марта, ср
ср323:00+8з11880 0.0 102022
02:00+6з12900 0.0 101922
05:00+5з11940 0.0 101922
08:00+8юз13821 0.0 1019416
11:00+11зюз345615 0.0 10181075
14:00+13з65577 0.0 10161213
17:00+10з566924 0.1 1016815
20:00+8зсз228418 0.1 101773
4 марта, чт
чт423:00+7з11900 0.0 101722
02:00+6з23881 0.1 101650
05:00+5юз129040 0.0 101783
08:00+7зюз467035 0.0 1017790
11:00+10з786046 0.1 10171294
14:00+11з9116052 0.3 10161447
17:00+9зсз9116936 0.1 10171010
20:00+7з6118718 0.1 1019477
5 марта, пт
пт523:00+7з48939 0.0 1020243
02:00+6зюз34946 0.0 102177
05:00+5зюз23963 0.0 102236
08:00+9з468017 0.0 1023711
11:00+13з555537 0.0 1023906
14:00+15з565318 0.0 1022942
17:00+13зсз45650 0.0 1022648
20:00+9сз11850 0.0 102322
6 марта, сб
сб623:00+8вюв11880 0.0 102422
02:00+6ююв11910 0.0 102322
05:00+6вюв12840 0.0 102322
08:00+11юв35570 0.0 1024224
11:00+17ююв56320 0.0 1022644
14:00+20ю34200 0.0 10201175
17:00+17зсз22420 0.0 101923
20:00+12сз11620 0.0 102023